Location: Martz Observatory
(42.0083°N, 79.0667°W)
Time: 06:07:40
(UTC-04:00)

Meteor 1-23 Rocket - Visible Passes

Search period start: 01 September 2015 00:00
Search period end: 11 September 2015 00:00
Orbit: 837 x 889 km, 81.3° (Epoch: 30 August)

Date Brightness Start Highest point End Pass type
(mag) Time Alt. Az. Time Alt. Az. Time Alt. Az.
01 Sep 7.4 20:56:53 10° NW 20:59:37 13° W 21:02:00 10° WSW visible
02 Sep 7.4 20:48:33 10° NW 20:51:20 13° W 20:53:47 10° WSW visible
03 Sep 7.5 20:40:12 10° NW 20:43:03 13° W 20:45:33 10° WSW visible
04 Sep 7.5 20:31:51 10° NW 20:34:46 14° W 20:37:20 10° WSW visible
05 Sep 7.7 06:18:48 10° ESE 06:20:57 13° E 06:23:26 10° ENE visible
05 Sep 7.5 20:23:31 10° NW 20:26:28 14° W 20:29:06 10° WSW visible
06 Sep 7.7 06:10:34 10° ESE 06:12:39 12° E 06:15:06 10° ENE visible
06 Sep 7.6 20:15:11 10° NW 20:18:11 14° W 20:20:53 10° WSW visible
07 Sep 7.6 06:02:20 10° ESE 06:04:22 12° E 06:06:45 10° ENE visible
07 Sep 7.6 20:06:50 10° NW 20:09:54 14° W 20:12:39 10° WSW visible
08 Sep 7.6 05:54:06 10° ESE 05:56:04 12° E 05:58:24 10° ENE visible
09 Sep 7.6 05:45:52 10° ESE 05:47:47 12° E 05:50:04 10° ENE visible
10 Sep 7.5 05:37:37 10° ESE 05:39:29 12° E 05:41:43 10° ENE visible
